LXJ310 KOMA-KCOU

Flight info

Callsign LXJ310
Flight time 0h 36m
Altitude 27000
Route SAJHO JAWED YOJCO
Aircraft E55P/M-SBDFGHJ2RWY/LB2

Departure

Time 2026-05-07 14:58
Airport Eppley Airfield (KOMA)

Arrival

Time 2026-05-07 15:35
Airport Columbia Regional Airport (KCOU)
Time Latitude Longitude Altitude Speed Heading
2026-05-07 14:44 41.30322 -95.88560 979 ft 0 kts 150°
2026-05-07 14:53 41.30311 -95.88560 982 ft 4 kts 200°
2026-05-07 14:53 41.30292 -95.88605 979 ft 7 kts 260°
2026-05-07 14:53 41.30314 -95.88670 979 ft 8 kts 309°
2026-05-07 14:53 41.30343 -95.88719 979 ft 7 kts 299°
2026-05-07 14:54 41.30341 -95.88799 982 ft 9 kts 278°
2026-05-07 14:54 41.30397 -95.88865 981 ft 15 kts 323°
2026-05-07 14:54 41.30505 -95.88968 983 ft 23 kts 324°
2026-05-07 14:54 41.30635 -95.89092 982 ft 21 kts 324°
2026-05-07 14:55 41.30743 -95.89194 981 ft 17 kts 324°
2026-05-07 14:55 41.30849 -95.89237 979 ft 18 kts
2026-05-07 14:55 41.30992 -95.89236 979 ft 21 kts
2026-05-07 14:55 41.31129 -95.89235 983 ft 18 kts
2026-05-07 14:56 41.31246 -95.89235 979 ft 15 kts
2026-05-07 14:56 41.31322 -95.89289 979 ft 13 kts 284°
2026-05-07 14:56 41.31325 -95.89431 977 ft 19 kts 270°
2026-05-07 14:56 41.31333 -95.89613 979 ft 19 kts 290°
2026-05-07 14:57 41.31384 -95.89749 979 ft 15 kts 297°
2026-05-07 14:57 41.31425 -95.89860 979 ft 12 kts 282°
2026-05-07 14:57 41.31397 -95.89941 979 ft 8 kts 234°
2026-05-07 14:57 41.31349 -95.90023 986 ft 11 kts 216°
2026-05-07 14:58 41.31187 -95.89886 984 ft 75 kts 144°
2026-05-07 14:58 41.30545 -95.89276 1113 ft 130 kts 145°
2026-05-07 14:58 41.29729 -95.88443 1855 ft 175 kts 146°
2026-05-07 14:58 41.28700 -95.87317 2873 ft 207 kts 145°
2026-05-07 14:59 41.27608 -95.85836 3932 ft 244 kts 128°
2026-05-07 14:59 41.26749 -95.83787 4996 ft 263 kts 120°
2026-05-07 14:59 41.25882 -95.81595 6016 ft 280 kts 122°
2026-05-07 14:59 41.24913 -95.79263 7050 ft 296 kts 121°
2026-05-07 15:00 41.23926 -95.76808 8075 ft 302 kts 120°
2026-05-07 15:00 41.22950 -95.74349 9139 ft 302 kts 120°
2026-05-07 15:00 41.21952 -95.71874 10176 ft 307 kts 120°
2026-05-07 15:00 41.20930 -95.69351 11174 ft 312 kts 119°
2026-05-07 15:01 41.19893 -95.66782 12083 ft 323 kts 119°
2026-05-07 15:01 41.18826 -95.64138 12917 ft 333 kts 118°
2026-05-07 15:01 41.17703 -95.61356 13832 ft 342 kts 118°
2026-05-07 15:01 41.16579 -95.58579 14582 ft 350 kts 118°
2026-05-07 15:02 41.15413 -95.55703 15463 ft 357 kts 118°
2026-05-07 15:02 41.14223 -95.52765 16351 ft 366 kts 118°
2026-05-07 15:02 41.13002 -95.49755 17209 ft 375 kts 117°
2026-05-07 15:02 41.11752 -95.46684 18037 ft 383 kts 117°
2026-05-07 15:03 41.10476 -95.43545 18794 ft 390 kts 117°
2026-05-07 15:03 41.09183 -95.40368 19588 ft 394 kts 117°
2026-05-07 15:03 41.07872 -95.37154 20342 ft 398 kts 118°
2026-05-07 15:03 41.06548 -95.33908 21086 ft 403 kts 118°
2026-05-07 15:04 41.05225 -95.30670 21805 ft 407 kts 118°
2026-05-07 15:04 41.03869 -95.27352 22500 ft 412 kts 118°
2026-05-07 15:04 41.02496 -95.24000 23182 ft 416 kts 118°
2026-05-07 15:04 41.01110 -95.20618 23799 ft 420 kts 118°
2026-05-07 15:05 40.99708 -95.17203 24356 ft 424 kts 118°
2026-05-07 15:05 40.98295 -95.13763 24907 ft 427 kts 119°
2026-05-07 15:05 40.96828 -95.10331 25428 ft 430 kts 124°
2026-05-07 15:05 40.94987 -95.07215 25949 ft 431 kts 136°
2026-05-07 15:06 40.92812 -95.04579 26455 ft 430 kts 145°
2026-05-07 15:06 40.90495 -95.02065 26969 ft 434 kts 145°
2026-05-07 15:06 40.88166 -94.99417 27011 ft 451 kts 142°
2026-05-07 15:06 40.85796 -94.96585 27017 ft 466 kts 142°
2026-05-07 15:07 40.83335 -94.93705 27022 ft 480 kts 143°
2026-05-07 15:07 40.80774 -94.90798 27032 ft 492 kts 143°
2026-05-07 15:07 40.78157 -94.87810 27029 ft 503 kts 142°
2026-05-07 15:07 40.75552 -94.84783 27030 ft 507 kts 142°
2026-05-07 15:08 40.72901 -94.81712 27029 ft 508 kts 143°
2026-05-07 15:08 40.70227 -94.78653 27027 ft 509 kts 143°
2026-05-07 15:08 40.67546 -94.75592 27026 ft 511 kts 143°
2026-05-07 15:08 40.64866 -94.72515 27028 ft 512 kts 143°
2026-05-07 15:09 40.62181 -94.69431 27029 ft 513 kts 143°
2026-05-07 15:09 40.59486 -94.66352 27030 ft 513 kts 143°
2026-05-07 15:09 40.56788 -94.63276 27027 ft 514 kts 143°
2026-05-07 15:09 40.54120 -94.60231 27026 ft 515 kts 143°
2026-05-07 15:10 40.51417 -94.57146 27027 ft 515 kts 143°
2026-05-07 15:10 40.48708 -94.54063 27024 ft 515 kts 143°
2026-05-07 15:10 40.45996 -94.50982 27026 ft 516 kts 143°
2026-05-07 15:10 40.43282 -94.47896 27026 ft 516 kts 143°
2026-05-07 15:11 40.40565 -94.44813 27020 ft 516 kts 143°
2026-05-07 15:11 40.37849 -94.41735 27026 ft 516 kts 143°
2026-05-07 15:11 40.35130 -94.38658 27022 ft 517 kts 143°
2026-05-07 15:11 40.32445 -94.35621 27024 ft 517 kts 143°
2026-05-07 15:12 40.29724 -94.32546 27024 ft 517 kts 143°
2026-05-07 15:12 40.26999 -94.29471 27029 ft 517 kts 143°
2026-05-07 15:12 40.24276 -94.26402 27029 ft 517 kts 143°
2026-05-07 15:12 40.21551 -94.23333 27030 ft 517 kts 143°
2026-05-07 15:13 40.18825 -94.20267 27027 ft 517 kts 143°
2026-05-07 15:13 40.16098 -94.17204 27035 ft 517 kts 144°
2026-05-07 15:13 40.13374 -94.14147 27039 ft 517 kts 144°
2026-05-07 15:13 40.10644 -94.11086 27027 ft 517 kts 144°
2026-05-07 15:14 40.07952 -94.08072 27037 ft 516 kts 144°
2026-05-07 15:14 40.05232 -94.05027 27040 ft 514 kts 143°
2026-05-07 15:14 40.02666 -94.01767 27039 ft 516 kts 136°
2026-05-07 15:14 40.00357 -93.98186 26938 ft 515 kts 132°
2026-05-07 15:15 39.98088 -93.94577 26549 ft 515 kts 133°
2026-05-07 15:15 39.95810 -93.90981 26098 ft 513 kts 133°
2026-05-07 15:15 39.93549 -93.87407 25658 ft 509 kts 133°
2026-05-07 15:15 39.91315 -93.83869 25220 ft 502 kts 133°
2026-05-07 15:16 39.89110 -93.80383 24791 ft 497 kts 133°
2026-05-07 15:16 39.86918 -93.76929 24370 ft 492 kts 133°
2026-05-07 15:16 39.84781 -93.73567 23958 ft 486 kts 133°
2026-05-07 15:16 39.82642 -93.70200 23534 ft 480 kts 133°
2026-05-07 15:17 39.80526 -93.66869 23014 ft 476 kts 133°
2026-05-07 15:17 39.78418 -93.63563 22516 ft 474 kts 133°
2026-05-07 15:17 39.76312 -93.60263 22042 ft 475 kts 133°
2026-05-07 15:17 39.74197 -93.56948 21574 ft 477 kts 133°
2026-05-07 15:18 39.72078 -93.53629 21113 ft 478 kts 133°
2026-05-07 15:18 39.69957 -93.50311 20661 ft 475 kts 133°
2026-05-07 15:18 39.67861 -93.47035 20220 ft 468 kts 133°
2026-05-07 15:18 39.65820 -93.43851 19783 ft 463 kts 133°
2026-05-07 15:19 39.63773 -93.40662 19345 ft 456 kts 132°
2026-05-07 15:19 39.61755 -93.37520 18903 ft 452 kts 132°
2026-05-07 15:19 39.59748 -93.34396 18461 ft 449 kts 132°
2026-05-07 15:19 39.57755 -93.31300 17960 ft 444 kts 132°
2026-05-07 15:20 39.55784 -93.28239 17460 ft 440 kts 132°
2026-05-07 15:20 39.53837 -93.25220 16981 ft 434 kts 132°
2026-05-07 15:20 39.51942 -93.22282 16521 ft 428 kts 132°
2026-05-07 15:20 39.50043 -93.19342 16113 ft 424 kts 132°
2026-05-07 15:21 39.48160 -93.16431 15733 ft 420 kts 132°
2026-05-07 15:21 39.46289 -93.13540 15356 ft 417 kts 132°
2026-05-07 15:21 39.44432 -93.10672 15080 ft 415 kts 132°
2026-05-07 15:21 39.42582 -93.07818 14992 ft 413 kts 132°
2026-05-07 15:22 39.40735 -93.04973 14989 ft 414 kts 132°
2026-05-07 15:22 39.38881 -93.02119 14990 ft 415 kts 132°
2026-05-07 15:22 39.37050 -92.99302 14992 ft 416 kts 132°
2026-05-07 15:22 39.35185 -92.96436 14995 ft 416 kts 132°
2026-05-07 15:23 39.33321 -92.93570 14994 ft 417 kts 132°
2026-05-07 15:23 39.31463 -92.90719 14993 ft 413 kts 132°
2026-05-07 15:23 39.29617 -92.87893 14932 ft 411 kts 132°
2026-05-07 15:23 39.27786 -92.85088 14580 ft 406 kts 132°
2026-05-07 15:24 39.25977 -92.82318 14118 ft 402 kts 132°
2026-05-07 15:24 39.24189 -92.79586 13608 ft 395 kts 132°
2026-05-07 15:24 39.22434 -92.76905 13069 ft 388 kts 133°
2026-05-07 15:24 39.20704 -92.74265 12540 ft 382 kts 133°
2026-05-07 15:25 39.19045 -92.71732 12028 ft 364 kts 133°
2026-05-07 15:25 39.17455 -92.69306 11516 ft 346 kts 133°
2026-05-07 15:25 39.15936 -92.66995 11010 ft 330 kts 133°
2026-05-07 15:25 39.14425 -92.64856 10543 ft 316 kts 137°
2026-05-07 15:26 39.12916 -92.62876 10136 ft 303 kts 137°
2026-05-07 15:26 39.11461 -92.60946 9747 ft 298 kts 137°
2026-05-07 15:26 39.10032 -92.59042 9335 ft 293 kts 137°
2026-05-07 15:26 39.08643 -92.57200 8936 ft 289 kts 137°
2026-05-07 15:27 39.07242 -92.55346 8538 ft 288 kts 137°
2026-05-07 15:27 39.05940 -92.53390 8158 ft 288 kts 130°
2026-05-07 15:27 39.04725 -92.51326 7763 ft 290 kts 130°
2026-05-07 15:27 39.03509 -92.49250 7392 ft 291 kts 130°
2026-05-07 15:28 39.02316 -92.47205 7045 ft 282 kts 130°
2026-05-07 15:28 39.01158 -92.45232 6685 ft 270 kts 130°
2026-05-07 15:28 39.00049 -92.43336 6328 ft 261 kts 130°
2026-05-07 15:28 38.98982 -92.41526 5967 ft 255 kts 130°
2026-05-07 15:29 38.97922 -92.39724 5596 ft 250 kts 130°
2026-05-07 15:29 38.96902 -92.37936 5251 ft 247 kts 127°
2026-05-07 15:29 38.95996 -92.36085 4990 ft 243 kts 123°
2026-05-07 15:29 38.95169 -92.34227 4717 ft 236 kts 123°
2026-05-07 15:30 38.94375 -92.32419 4541 ft 229 kts 121°
2026-05-07 15:30 38.93763 -92.30594 4355 ft 211 kts 112°
2026-05-07 15:30 38.93304 -92.28892 4106 ft 195 kts 111°
2026-05-07 15:30 38.92892 -92.27310 3831 ft 187 kts 111°
2026-05-07 15:31 38.92477 -92.25708 3573 ft 192 kts 111°
2026-05-07 15:31 38.92040 -92.24129 3494 ft 184 kts 115°
2026-05-07 15:31 38.91543 -92.22647 3281 ft 176 kts 124°
2026-05-07 15:31 38.90864 -92.21399 2966 ft 165 kts 133°
2026-05-07 15:32 38.90107 -92.20323 2759 ft 160 kts 144°
2026-05-07 15:32 38.89222 -92.19542 2522 ft 149 kts 160°
2026-05-07 15:32 38.88256 -92.19075 2358 ft 148 kts 171°
2026-05-07 15:32 38.87260 -92.18982 2113 ft 132 kts 197°
2026-05-07 15:33 38.86468 -92.19322 2000 ft 124 kts 207°
2026-05-07 15:33 38.85679 -92.19771 1917 ft 115 kts 208°
2026-05-07 15:33 38.84979 -92.20136 1663 ft 105 kts 204°
2026-05-07 15:33 38.84238 -92.20487 1474 ft 114 kts 203°
2026-05-07 15:34 38.83525 -92.20871 1290 ft 108 kts 202°
2026-05-07 15:34 38.82866 -92.21196 1096 ft 95 kts 202°
2026-05-07 15:34 38.82239 -92.21511 947 ft 98 kts 202°
2026-05-07 15:34 38.81685 -92.21791 889 ft 65 kts 201°
2026-05-07 15:35 38.81357 -92.21955 890 ft 39 kts 201°
2026-05-07 15:35 38.81139 -92.22063 887 ft 25 kts 201°
2026-05-07 15:35 38.81066 -92.22124 885 ft 8 kts 257°
2026-05-07 15:35 38.81079 -92.22183 886 ft 5 kts 291°
2026-05-07 15:36 38.81089 -92.22211 887 ft 4 kts 301°
2026-05-07 15:36 38.81151 -92.22210 887 ft 15 kts 21°
2026-05-07 15:36 38.81258 -92.22155 888 ft 18 kts 21°
2026-05-07 15:36 38.81379 -92.22095 888 ft 19 kts 21°
2026-05-07 15:37 38.81492 -92.22039 888 ft 16 kts 21°
2026-05-07 15:37 38.81589 -92.21990 889 ft 14 kts 22°
2026-05-07 15:37 38.81671 -92.21948 889 ft 14 kts 22°
2026-05-07 15:37 38.81770 -92.21898 889 ft 15 kts 21°
2026-05-07 15:38 38.81843 -92.21864 889 ft 8 kts
2026-05-07 15:38 38.81880 -92.21925 889 ft 10 kts 291°
2026-05-07 15:38 38.81926 -92.21938 889 ft 6 kts 359°
2026-05-07 15:38 38.81942 -92.21970 889 ft 3 kts 291°
2026-05-07 15:39 38.81944 -92.21977 889 ft 0 kts 290°